Time,TemperatureF,DewpointF,PressureIn,WindDirection,WindDirectionDegrees,WindSpeedMPH,WindSpeedGustMPH,Humidity,HourlyPrecipIn,Conditions,Clouds,dailyrainin,SoftwareType,DateUTC
2013-10-22 14:50:00,38.0,24.5,30.17,SSE,157,0.0,0.0,58,0.00,,,0.00,Wunderground v.1.15,2013-10-22 22:50:00,
2013-10-22 14:55:00,38.2,24.3,30.17,SSW,212,0.0,2.0,57,0.00,,,0.00,Wunderground v.1.15,2013-10-22 22:55:00,
2013-10-22 15:00:00,37.9,24.4,30.17,SE,130,0.0,0.0,58,0.00,,,0.00,Wunderground v.1.15,2013-10-22 23:00:00,
2013-10-22 15:05:00,37.6,24.1,30.17,SSE,160,2.0,4.0,58,0.00,,,0.00,Wunderground v.1.15,2013-10-22 23:05:00,
2013-10-22 15:10:00,37.3,24.7,30.17,ESE,102,1.0,1.0,60,0.00,,,0.00,Wunderground v.1.15,2013-10-22 23:10:00,
2013-10-22 15:15:00,37.5,24.5,30.17,SSE,147,0.0,2.0,59,0.00,,,0.00,Wunderground v.1.15,2013-10-22 23:15:00,
2013-10-22 15:20:00,37.8,25.1,30.17,SSE,153,0.0,0.0,60,0.00,,,0.00,Wunderground v.1.15,2013-10-22 23:20:00,
2013-10-22 15:25:00,37.8,25.1,30.17,SE,141,0.0,3.0,60,0.00,,,0.00,Wunderground v.1.15,2013-10-22 23:25:00,
2013-10-22 15:30:00,37.8,25.1,30.17,South,173,0.0,1.0,60,0.00,,,0.00,Wunderground v.1.15,2013-10-22 23:30:00,
2013-10-22 15:35:00,37.5,24.9,30.17,South,173,0.0,1.0,60,0.00,,,0.00,Wunderground v.1.15,2013-10-22 23:35:00,
2013-10-22 15:40:00,37.5,24.9,30.17,SW,221,1.0,2.0,60,0.00,,,0.00,Wunderground v.1.15,2013-10-22 23:40:00,
2013-10-22 15:45:00,37.5,24.5,30.17,SSW,194,2.0,2.0,59,0.00,,,0.00,Wunderground v.1.15,2013-10-22 23:45:00,
2013-10-22 15:51:00,37.3,24.3,30.17,SSE,155,0.0,1.0,59,0.00,,,0.00,Wunderground v.1.15,2013-10-22 23:51:00,
2013-10-22 15:56:00,37.3,23.9,30.17,SSE,155,0.0,1.0,58,0.00,,,0.00,Wunderground v.1.15,2013-10-22 23:56:00,
2013-10-22 16:01:00,37.0,24.0,30.17,SSE,161,0.0,1.0,59,0.00,,,0.00,Wunderground v.1.15,2013-10-23 00:01:00,
2013-10-22 16:06:00,37.0,24.4,30.17,South,181,0.0,3.0,60,0.00,,,0.00,Wunderground v.1.15,2013-10-23 00:06:00,
2013-10-22 16:11:00,36.9,23.9,30.17,South,188,0.0,2.0,59,0.00,,,0.00,Wunderground v.1.15,2013-10-23 00:11:00,
2013-10-22 16:17:00,36.9,23.9,30.17,SSW,207,0.0,2.0,59,0.00,,,0.00,Wunderground v.1.15,2013-10-23 00:17:00,
2013-10-22 16:22:00,36.5,23.9,30.17,SE,142,1.0,1.0,60,0.00,,,0.00,Wunderground v.1.15,2013-10-23 00:22:00,
2013-10-22 16:27:00,36.3,24.1,30.18,SSW,192,0.0,2.0,61,0.00,,,0.00,Wunderground v.1.15,2013-10-23 00:27:00,
2013-10-22 16:32:00,36.0,23.8,30.18,SSW,192,0.0,2.0,61,0.00,,,0.00,Wunderground v.1.15,2013-10-23 00:32:00,
2013-10-22 16:37:00,35.8,23.7,30.18,SSE,167,0.0,2.0,61,0.00,,,0.00,Wunderground v.1.15,2013-10-23 00:37:00,
2013-10-22 16:43:00,35.6,23.9,30.18,SSE,167,0.0,1.0,62,0.00,,,0.00,Wunderground v.1.15,2013-10-23 00:43:00,
2013-10-22 16:48:00,35.6,23.9,30.18,SE,129,0.0,2.0,62,0.00,,,0.00,Wunderground v.1.15,2013-10-23 00:48:00,
2013-10-22 16:53:00,35.5,23.8,30.18,SE,129,0.0,0.0,62,0.00,,,0.00,Wunderground v.1.15,2013-10-23 00:53:00,
2013-10-22 16:58:00,35.2,23.9,30.18,SE,129,1.0,1.0,63,0.00,,,0.00,Wunderground v.1.15,2013-10-23 00:58:00,
2013-10-22 17:03:00,34.9,23.6,30.18,SE,129,0.0,1.0,63,0.00,,,0.00,Wunderground v.1.15,2013-10-23 01:03:00,
2013-10-22 17:08:00,34.6,23.7,30.18,SE,129,0.0,1.0,64,0.00,,,0.00,Wunderground v.1.15,2013-10-23 01:08:00,
2013-10-22 17:13:00,34.4,23.8,30.19,SE,129,0.0,1.0,65,0.00,,,0.00,Wunderground v.1.15,2013-10-23 01:13:00,
2013-10-22 17:18:00,34.3,23.7,30.19,SE,129,0.0,1.0,65,0.00,,,0.00,Wunderground v.1.15,2013-10-23 01:18:00,
2013-10-22 17:23:00,34.1,23.9,30.19,SE,129,0.0,0.0,66,0.00,,,0.00,Wunderground v.1.15,2013-10-23 01:23:00,
2013-10-22 17:28:00,34.0,23.8,30.18,SE,129,0.0,1.0,66,0.00,,,0.00,Wunderground v.1.15,2013-10-23 01:28:00,
2013-10-22 17:33:00,33.8,23.6,30.18,SE,129,0.0,0.0,66,0.00,,,0.00,Wunderground v.1.15,2013-10-23 01:33:00,
2013-10-22 17:38:00,33.7,23.5,30.18,SE,129,0.0,0.0,66,0.00,,,0.00,Wunderground v.1.15,2013-10-23 01:38:00,
2013-10-22 17:43:00,33.5,23.7,30.18,SE,129,0.0,0.0,67,0.00,,,0.00,Wunderground v.1.15,2013-10-23 01:43:00,
2013-10-22 17:48:00,33.5,23.7,30.18,SE,129,0.0,0.0,67,0.00,,,0.00,Wunderground v.1.15,2013-10-23 01:48:00,
2013-10-22 17:53:00,33.2,23.4,30.18,SE,129,0.0,0.0,67,0.00,,,0.00,Wunderground v.1.15,2013-10-23 01:53:00,
2013-10-22 17:58:00,33.1,23.7,30.18,SE,129,0.0,0.0,68,0.00,,,0.00,Wunderground v.1.15,2013-10-23 01:58:00,
2013-10-22 18:03:00,32.9,23.8,30.18,SE,129,0.0,0.0,69,0.00,,,0.00,Wunderground v.1.15,2013-10-23 02:03:00,
2013-10-22 18:08:00,32.8,23.7,30.18,SE,129,0.0,1.0,69,0.00,,,0.00,Wunderground v.1.15,2013-10-23 02:08:00,
2013-10-22 18:13:00,32.7,23.6,30.18,SE,129,0.0,0.0,69,0.00,,,0.00,Wunderground v.1.15,2013-10-23 02:13:00,
2013-10-22 18:18:00,32.7,24.0,30.18,SE,129,0.0,1.0,70,0.00,,,0.00,Wunderground v.1.15,2013-10-23 02:18:00,
2013-10-22 18:23:00,32.5,23.8,30.18,SE,129,0.0,0.0,70,0.00,,,0.00,Wunderground v.1.15,2013-10-23 02:23:00,
2013-10-22 18:29:00,32.4,23.7,30.18,SE,129,0.0,1.0,70,0.00,,,0.00,Wunderground v.1.15,2013-10-23 02:29:00,
2013-10-22 18:34:00,32.2,23.8,30.18,SE,129,0.0,0.0,71,0.00,,,0.00,Wunderground v.1.15,2013-10-23 02:34:00,
2013-10-22 18:39:00,32.1,24.1,30.18,SE,129,0.0,1.0,72,0.00,,,0.00,Wunderground v.1.15,2013-10-23 02:39:00,
2013-10-22 18:44:00,32.1,24.1,30.18,SE,129,0.0,0.0,72,0.00,,,0.00,Wunderground v.1.15,2013-10-23 02:44:00,
2013-10-22 18:49:00,31.9,23.9,30.18,SE,129,0.0,0.0,72,0.00,,,0.00,Wunderground v.1.15,2013-10-23 02:49:00,
2013-10-22 18:54:00,31.8,24.1,30.18,SE,129,0.0,0.0,73,0.00,,,0.00,Wunderground v.1.15,2013-10-23 02:54:00,
2013-10-22 18:59:00,31.8,24.5,30.18,SE,129,0.0,1.0,74,0.00,,,0.00,Wunderground v.1.15,2013-10-23 02:59:00,
2013-10-22 19:04:00,31.9,24.6,30.18,SE,129,0.0,0.0,74,0.00,,,0.00,Wunderground v.1.15,2013-10-23 03:04:00,
2013-10-22 19:09:00,32.1,24.7,30.18,SE,129,0.0,0.0,74,0.00,,,0.00,Wunderground v.1.15,2013-10-23 03:09:00,
2013-10-22 19:14:00,31.9,24.6,30.18,SE,129,0.0,0.0,74,0.00,,,0.00,Wunderground v.1.15,2013-10-23 03:14:00,
2013-10-22 19:20:00,31.5,24.5,30.18,SE,129,0.0,0.0,75,0.00,,,0.00,Wunderground v.1.15,2013-10-23 03:20:00,
2013-10-22 19:26:00,30.9,23.9,30.18,SE,129,0.0,0.0,75,0.00,,,0.00,Wunderground v.1.15,2013-10-23 03:26:00,
2013-10-22 19:31:00,30.3,23.6,30.18,SE,129,0.0,0.0,76,0.00,,,0.00,Wunderground v.1.15,2013-10-23 03:31:00,
2013-10-22 19:36:00,29.8,23.8,30.18,SE,129,0.0,0.0,78,0.00,,,0.00,Wunderground v.1.15,2013-10-23 03:36:00,
2013-10-22 19:41:00,29.5,23.5,30.18,SE,129,0.0,0.0,78,0.00,,,0.00,Wunderground v.1.15,2013-10-23 03:41:00,
2013-10-22 19:46:00,29.1,23.1,30.19,SE,129,0.0,0.0,78,0.00,,,0.00,Wunderground v.1.15,2013-10-23 03:46:00,
2013-10-22 19:52:00,28.7,22.7,30.19,SE,129,0.0,0.0,78,0.00,,,0.00,Wunderground v.1.15,2013-10-23 03:52:00,
2013-10-22 19:57:00,28.2,22.5,30.19,SE,129,0.0,0.0,79,0.00,,,0.00,Wunderground v.1.15,2013-10-23 03:57:00,
2013-10-22 20:01:00,28.1,22.4,30.19,SE,129,0.0,0.0,79,0.00,,,0.00,Wunderground v.1.15,2013-10-23 04:01:00,
2013-10-22 20:02:00,27.9,22.2,30.19,SE,129,0.0,0.0,79,0.00,,,0.00,Wunderground v.1.15,2013-10-23 04:02:00,
2013-10-22 20:05:00,27.6,22.2,30.19,SE,129,0.0,0.0,80,0.00,,,0.00,Wunderground v.1.15,2013-10-23 04:05:00,
2013-10-22 20:06:00,27.6,22.2,30.19,SE,129,0.0,0.0,80,0.00,,,0.00,Wunderground v.1.15,2013-10-23 04:06:00,
2013-10-22 20:08:00,27.5,22.1,30.19,SE,129,0.0,0.0,80,0.00,,,0.00,Wunderground v.1.15,2013-10-23 04:08:00,
2013-10-22 20:09:00,27.5,22.1,30.19,SE,129,0.0,0.0,80,0.00,,,0.00,Wunderground v.1.15,2013-10-23 04:09:00,
2013-10-22 20:14:00,27.2,21.8,30.19,SE,129,0.0,0.0,80,0.00,,,0.00,Wunderground v.1.15,2013-10-23 04:14:00,
2013-10-22 20:19:00,27.0,21.9,30.19,SE,129,0.0,1.0,81,0.00,,,0.00,Wunderground v.1.15,2013-10-23 04:19:00,
2013-10-22 20:24:00,27.0,21.9,30.19,SE,129,0.0,0.0,81,0.00,,,0.00,Wunderground v.1.15,2013-10-23 04:24:00,
2013-10-22 20:29:00,27.0,22.2,30.18,SE,129,0.0,1.0,82,0.00,,,0.00,Wunderground v.1.15,2013-10-23 04:29:00,
2013-10-22 20:34:00,27.2,22.4,30.18,SE,129,0.0,0.0,82,0.00,,,0.00,Wunderground v.1.15,2013-10-23 04:34:00,
2013-10-22 20:39:00,27.3,22.5,30.18,SE,129,0.0,0.0,82,0.00,,,0.00,Wunderground v.1.15,2013-10-23 04:39:00,
2013-10-22 20:44:00,27.0,21.9,30.19,SE,129,0.0,0.0,81,0.00,,,0.00,Wunderground v.1.15,2013-10-23 04:44:00,
2013-10-22 20:49:00,26.7,21.9,30.19,SE,129,0.0,1.0,82,0.00,,,0.00,Wunderground v.1.15,2013-10-23 04:49:00,
2013-10-22 20:54:00,26.4,21.7,30.19,ESE,109,0.0,0.0,82,0.00,,,0.00,Wunderground v.1.15,2013-10-23 04:54:00,
2013-10-22 20:59:00,26.3,21.6,30.19,ENE,59,0.0,1.0,82,0.00,,,0.00,Wunderground v.1.15,2013-10-23 04:59:00,
2013-10-22 21:04:00,26.1,21.6,30.19,ENE,59,0.0,1.0,83,0.00,,,0.00,Wunderground v.1.15,2013-10-23 05:04:00,
2013-10-22 21:10:00,26.0,21.5,30.19,ENE,59,0.0,0.0,83,0.00,,,0.00,Wunderground v.1.15,2013-10-23 05:10:00,
2013-10-22 21:15:00,26.0,21.5,30.19,NNE,32,0.0,2.0,83,0.00,,,0.00,Wunderground v.1.15,2013-10-23 05:15:00,
2013-10-22 21:20:00,26.1,21.6,30.19,NNE,27,0.0,0.0,83,0.00,,,0.00,Wunderground v.1.15,2013-10-23 05:20:00,
2013-10-22 21:25:00,26.1,21.6,30.19,NNE,15,0.0,1.0,83,0.00,,,0.00,Wunderground v.1.15,2013-10-23 05:25:00,
2013-10-22 21:30:00,26.3,21.8,30.18,NNE,15,0.0,0.0,83,0.00,,,0.00,Wunderground v.1.15,2013-10-23 05:30:00,
2013-10-22 21:35:00,26.1,21.4,30.18,NNE,15,0.0,0.0,82,0.00,,,0.00,Wunderground v.1.15,2013-10-23 05:35:00,
2013-10-22 21:40:00,25.8,21.3,30.18,NNE,15,1.0,1.0,83,0.00,,,0.00,Wunderground v.1.15,2013-10-23 05:40:00,
2013-10-22 21:45:00,25.8,21.1,30.18,NNE,14,0.0,2.0,82,0.00,,,0.00,Wunderground v.1.15,2013-10-23 05:45:00,
2013-10-22 21:50:00,25.6,20.9,30.18,NNE,17,1.0,2.0,82,0.00,,,0.00,Wunderground v.1.15,2013-10-23 05:50:00,
2013-10-22 21:55:00,25.4,20.7,30.18,North,5,0.0,2.0,82,0.00,,,0.00,Wunderground v.1.15,2013-10-23 05:55:00,
2013-10-22 22:00:00,25.0,20.0,30.18,North,5,0.0,0.0,81,0.00,,,0.00,Wunderground v.1.15,2013-10-23 06:00:00,
2013-10-22 22:05:00,24.5,19.8,30.18,North,5,0.0,0.0,82,0.00,,,0.00,Wunderground v.1.15,2013-10-23 06:05:00,
2013-10-22 22:10:00,24.4,20.3,30.18,North,5,1.0,1.0,84,0.00,,,0.00,Wunderground v.1.15,2013-10-23 06:10:00,
2013-10-22 22:15:00,24.7,20.8,30.18,North,11,0.0,1.0,85,0.00,,,0.00,Wunderground v.1.15,2013-10-23 06:15:00,
2013-10-22 22:21:00,25.1,21.5,30.18,North,11,0.0,0.0,86,0.00,,,0.00,Wunderground v.1.15,2013-10-23 06:21:00,
2013-10-22 22:26:00,25.6,22.3,30.18,North,11,0.0,1.0,87,0.00,,,0.00,Wunderground v.1.15,2013-10-23 06:26:00,
2013-10-22 22:31:00,25.4,21.5,30.17,North,11,0.0,0.0,85,0.00,,,0.00,Wunderground v.1.15,2013-10-23 06:31:00,
2013-10-22 22:36:00,25.3,21.1,30.17,North,11,0.0,1.0,84,0.00,,,0.00,Wunderground v.1.15,2013-10-23 06:36:00,
2013-10-22 22:41:00,25.6,21.7,30.17,NE,44,0.0,2.0,85,0.00,,,0.00,Wunderground v.1.15,2013-10-23 06:41:00,
2013-10-22 22:46:00,26.0,21.8,30.17,NE,48,0.0,2.0,84,0.00,,,0.00,Wunderground v.1.15,2013-10-23 06:46:00,
2013-10-22 22:52:00,26.1,21.6,30.17,NE,48,0.0,0.0,83,0.00,,,0.00,Wunderground v.1.15,2013-10-23 06:52:00,
2013-10-22 22:57:00,26.0,21.3,30.17,NE,48,0.0,0.0,82,0.00,,,0.00,Wunderground v.1.15,2013-10-23 06:57:00,